Total_Precipitation_Accumulation
0.50 0.50 0.54 0.57 0.60 0.69 0.80 0.88 0.89 0.88 0.86 0.91 1.01 1.07 1.05 1.03 1.01 0.99 0.95 0.91 0.89 0.86 0.85 0.86 0.88 0.87 0.92 0.95 0.99 1.07 1.18 1.31 1.37 1.13 0.96 0.94 0.98 0.97 0.96 0.87 0.80 0.80 0.79
0.39 0.39 0.40 0.42 0.43 0.48 0.57 0.66 0.70 0.75 0.78 0.78 0.77 0.80 0.86 0.89 0.90 0.91 0.89 0.85 0.82 0.80 0.79 0.81 0.82 0.84 0.89 0.93 1.00 1.07 1.13 1.20 1.25 1.16 0.98 0.89 0.83 0.76 0.72 0.68 0.62 0.60 0.58
0.30 0.30 0.31 0.32 0.31 0.32 0.36 0.41 0.46 0.52 0.61 0.66 0.65 0.64 0.64 0.64 0.66 0.71 0.77 0.79 0.78 0.76 0.78 0.82 0.84 0.87 0.91 0.94 1.00 1.05 1.07 1.05 1.03 0.97 0.83 0.71 0.65 0.61 0.61 0.57 0.51 0.49 0.47
0.24 0.24 0.25 0.25 0.26 0.26 0.26 0.28 0.30 0.32 0.36 0.39 0.44 0.47 0.50 0.52 0.52 0.53 0.57 0.65 0.72 0.76 0.78 0.82 0.87 0.95 1.02 1.05 1.06 1.04 1.00 0.96 0.90 0.86 0.78 0.68 0.59 0.52 0.51 0.52 0.49 0.43 0.40
0.22 0.20 0.18 0.19 0.21 0.22 0.21 0.19 0.17 0.15 0.17 0.21 0.26 0.30 0.34 0.39 0.43 0.47 0.48 0.52 0.57 0.65 0.74 0.82 0.88 0.98 1.01 0.95 0.87 0.80 0.75 0.73 0.73 0.74 0.69 0.60 0.52 0.47 0.45 0.41 0.40 0.39 0.37
0.20 0.18 0.17 0.18 0.19 0.20 0.17 0.14 0.12 0.11 0.12 0.14 0.18 0.22 0.27 0.32 0.44 0.44 0.41 0.44 0.53 0.59 0.64 0.69 0.76 0.81 0.75 0.70 0.65 0.61 0.61 0.65 0.65 0.58 0.51 0.44 0.36 0.32 0.32 0.35 0.39 0.45 0.45
0.27 0.23 0.21 0.20 0.20 0.21 0.20 0.20 0.19 0.18 0.18 0.19 0.20 0.22 0.26 0.35 0.46 0.47 0.51 0.49 0.53 0.57 0.57 0.55 0.52 0.52 0.53 0.45 0.46 0.46 0.47 0.48 0.45 0.40 0.39 0.33 0.29 0.27 0.33 0.39 0.40 0.40 0.34
0.39 0.37 0.34 0.34 0.37 0.39 0.40 0.40 0.38 0.37 0.36 0.36 0.36 0.37 0.39 0.48 0.54 0.51 0.50 0.46 0.46 0.45 0.41 0.36 0.34 0.33 0.34 0.36 0.38 0.40 0.34 0.29 0.28 0.25 0.23 0.22 0.24 0.28 0.34 0.41 0.41 0.41 0.35
0.57 0.61 0.60 0.59 0.63 0.66 0.71 0.72 0.68 0.65 0.63 0.62 0.62 0.60 0.57 0.55 0.51 0.41 0.35 0.31 0.30 0.28 0.25 0.23 0.22 0.21 0.25 0.30 0.31 0.31 0.29 0.27 0.26 0.27 0.27 0.26 0.28 0.31 0.34 0.38 0.45 0.53 0.49
0.71 0.76 0.73 0.72 0.73 0.74 0.74 0.74 0.70 0.64 0.61 0.58 0.56 0.51 0.46 0.39 0.32 0.23 0.18 0.15 0.15 0.14 0.14 0.14 0.17 0.18 0.25 0.31 0.28 0.27 0.27 0.25 0.26 0.28 0.28 0.26 0.25 0.26 0.31 0.29 0.33 0.51 0.53
0.70 0.66 0.60 0.56 0.51 0.48 0.46 0.43 0.41 0.37 0.34 0.31 0.28 0.24 0.19 0.15 0.13 0.11 0.10 0.08 0.08 0.11 0.13 0.13 0.15 0.21 0.26 0.30 0.31 0.27 0.25 0.27 0.27 0.28 0.28 0.28 0.29 0.29 0.29 0.26 0.27 0.41 0.57
0.43 0.36 0.30 0.28 0.25 0.23 0.21 0.20 0.18 0.16 0.14 0.12 0.09 0.07 0.06 0.05 0.07 0.08 0.10 0.11 0.12 0.12 0.12 0.12 0.14 0.23 0.27 0.29 0.29 0.28 0.31 0.32 0.27 0.28 0.29 0.29 0.28 0.28 0.28 0.26 0.26 0.27 0.33
0.13 0.10 0.08 0.08 0.08 0.07 0.07 0.06 0.05 0.04 0.04 0.03 0.03 0.03 0.03 0.04 0.06 0.09 0.11 0.14 0.16 0.16 0.14 0.17 0.21 0.26 0.26 0.24 0.26 0.28 0.30 0.29 0.27 0.27 0.26 0.23 0.22 0.23 0.26 0.30 0.32 0.33 0.32
0.04 0.04 0.04 0.03 0.03 0.04 0.04 0.04 0.04 0.04 0.04 0.05 0.05 0.05 0.05 0.05 0.06 0.09 0.12 0.15 0.18 0.18 0.16 0.17 0.21 0.24 0.25 0.25 0.26 0.26 0.26 0.26 0.28 0.29 0.26 0.24 0.25 0.28 0.30 0.31 0.36 0.38 0.42
0.04 0.05 0.05 0.05 0.05 0.06 0.06 0.07 0.08 0.08 0.09 0.10 0.10 0.10 0.12 0.11 0.10 0.15 0.20 0.20 0.23 0.23 0.26 0.25 0.24 0.23 0.23 0.23 0.23 0.23 0.24 0.26 0.29 0.29 0.31 0.32 0.32 0.32 0.32 0.32 0.36 0.42 0.46
0.07 0.08 0.09 0.10 0.10 0.11 0.11 0.11 0.13 0.13 0.15 0.16 0.15 0.16 0.15 0.15 0.17 0.22 0.24 0.26 0.28 0.34 0.37 0.30 0.24 0.22 0.21 0.21 0.21 0.22 0.23 0.25 0.26 0.31 0.35 0.37 0.39 0.39 0.38 0.36 0.38 0.45 0.45
0.13 0.15 0.16 0.16 0.17 0.17 0.18 0.18 0.17 0.18 0.20 0.20 0.18 0.18 0.18 0.20 0.22 0.24 0.25 0.28 0.31 0.36 0.35 0.25 0.18 0.18 0.20 0.21 0.23 0.26 0.27 0.25 0.30 0.38 0.41 0.42 0.46 0.47 0.46 0.45 0.44 0.47 0.46
0.11 0.14 0.16 0.15 0.17 0.18 0.19 0.20 0.21 0.21 0.20 0.18 0.18 0.21 0.22 0.24 0.25 0.27 0.30 0.35 0.34 0.31 0.25 0.19 0.18 0.18 0.21 0.25 0.28 0.31 0.33 0.34 0.38 0.41 0.42 0.45 0.50 0.56 0.54 0.49 0.47 0.50 0.53
0.12 0.13 0.16 0.18 0.19 0.20 0.21 0.22 0.21 0.21 0.20 0.18 0.18 0.21 0.26 0.31 0.33 0.32 0.34 0.34 0.28 0.21 0.18 0.17 0.18 0.22 0.26 0.30 0.33 0.36 0.40 0.42 0.41 0.44 0.44 0.44 0.50 0.61 0.57 0.48 0.49 0.51 0.57
0.13 0.19 0.23 0.23 0.23 0.23 0.24 0.25 0.24 0.24 0.23 0.21 0.20 0.22 0.31 0.41 0.37 0.30 0.28 0.25 0.23 0.20 0.19 0.21 0.23 0.27 0.32 0.36 0.39 0.42 0.44 0.42 0.43 0.45 0.45 0.46 0.50 0.60 0.61 0.54 0.53 0.58 0.56
0.14 0.18 0.25 0.25 0.22 0.22 0.25 0.27 0.27 0.28 0.27 0.24 0.21 0.26 0.44 0.49 0.39 0.29 0.26 0.25 0.25 0.25 0.27 0.30 0.31 0.33 0.36 0.40 0.43 0.43 0.43 0.41 0.41 0.45 0.47 0.49 0.54 0.59 0.55 0.56 0.56 0.59 0.65
0.15 0.16 0.19 0.21 0.22 0.24 0.28 0.31 0.32 0.31 0.28 0.26 0.24 0.29 0.43 0.41 0.33 0.30 0.28 0.26 0.26 0.29 0.33 0.39 0.38 0.35 0.40 0.47 0.52 0.52 0.47 0.40 0.39 0.46 0.50 0.51 0.55 0.57 0.58 0.62 0.65 0.72 0.74
0.18 0.19 0.20 0.21 0.22 0.27 0.30 0.27 0.28 0.28 0.27 0.26 0.27 0.28 0.33 0.33 0.29 0.28 0.28 0.29 0.32 0.34 0.36 0.41 0.42 0.37 0.37 0.45 0.52 0.63 0.63 0.50 0.46 0.55 0.68 0.68 0.68 0.71 0.76 0.79 0.75 0.72 0.63
0.18 0.20 0.22 0.22 0.23 0.25 0.26 0.24 0.25 0.26 0.28 0.29 0.28 0.28 0.28 0.29 0.29 0.28 0.30 0.32 0.35 0.37 0.38 0.41 0.41 0.39 0.39 0.45 0.49 0.52 0.56 0.64 0.80 0.90 1.03 1.20 1.11 0.95 0.89 0.82 0.71 0.65 0.63
0.20 0.22 0.24 0.25 0.27 0.27 0.28 0.27 0.27 0.27 0.29 0.30 0.29 0.29 0.28 0.29 0.29 0.29 0.30 0.33 0.36 0.36 0.36 0.37 0.40 0.41 0.42 0.44 0.46 0.47 0.52 0.65 0.89 1.21 1.33 1.26 1.06 0.90 0.87 0.81 0.70 0.66 0.65
0.22 0.24 0.26 0.27 0.28 0.28 0.29 0.29 0.28 0.28 0.29 0.30 0.30 0.31 0.31 0.31 0.30 0.30 0.32 0.34 0.35 0.34 0.34 0.34 0.35 0.39 0.44 0.46 0.43 0.46 0.55 0.62 0.69 0.81 1.05 1.13 1.01 0.88 0.87 0.90 0.79 0.74 0.72